Powrót do katalogu

STARLINK-35730

AktywnyŁącznośćVLEO
NORAD 66273·PAYLOAD·🇺🇸 United States

Wystrzelony Oct 31, 2025 z Vandenberg Space Force Base

Loading…

Następne Przeloty (najbliższe 24 godziny)

TLE

ŚwieżeSource: CelesTrak SupGP

Epoka: Sep 14, 2026, 14:50 UTC

1 66273C 25247J   26257.61854167 -.00080919  00000+0 -23913-2 0  2579
2 66273  53.1608  29.4352 0001256  85.2197 227.4547 15.34424787    17

Śledź STARLINK-35730 w czasie rzeczywistym z AllMySat

Download on the App Store